Tracking 19909 objects as of 22-Oct-2019
HD Live streaming from Space Station
objects crossing your sky now

IRIDIUM 33 DEB


IRIDIUM 33 DEB is no longer on orbit


NORAD ID: 34491
Int'l Code: 1997-051GG
Perigee: N/A
Apogee: N/A
Inclination: N/A
Period: N/A
Semi major axis: N/A
RCS: N/A
Launch date: September 14, 1997
Source: United States (US)
Launch site: TYURATAM MISSILE AND SPACE COMPLEX (TTMTR)
Decay date: 2015-05-22

Note: This is SATELLITE DEBRIS
aabbcc
Your satellite tracking list
Your tracking list is empty




NASA's NSSDC Master Catalog

Two Line Element Set (TLE):
1 34491U 97051GG  15142.26912990  .08855904  10852+0  48895-1 0  9993
2 34491 086.3063 243.8275 0029332 279.1842 080.4727 15.84360266326169
Source of the keplerian elements: AFSPC